Location: Calvera
(42.3882°N, 0.6137°E)
Time: 19:53:16
(UTC+00:00)

Aureole 3 - Pass Details

Date: 28 October 2020
Orbit: 382 x 1232 km, 82.5° (Epoch: 22 November)

Event Time Altitude Azimuth Distance (km) Brightness Sun altitude
Rises 04:47:45 0° 355° (N) 2,730 6.8 -18.7°
Reaches altitude 10° 04:49:44 10° 359° (N) 1,936 6.1 -18.4°
Maximum altitude 04:53:59 63° 81° (E) 782 4.3 -17.6°
Drops below altitude 10° 04:59:24 10° 163° (SSE) 2,454 6.9 -16.6°
Sets 05:02:09 0° 166° (SSE) 3,533 7.7 -16.1°
